Tracking 27111 objects as of 28-Mar-2023
HD Live streaming from Space Station
objects crossing your sky now

ARIANE 2 DEB

Track ARIANE 2 DEB now!


NORAD ID: 27595
Int'l Code: 1988-040E
Perigee: 502.6 km
Apogee: 35,392.6 km
Inclination: 7.5 °
Period: 629.0 minutes
Semi major axis: 24318 km
RCS: 8.9719 m2 (large)
Launch date: May 17, 1988
Source: France (FR)
Launch site: FRENCH GUIANA (FRGUI)

Note: This is SATELLITE DEBRIS
Your satellite tracking list
Your tracking list is empty




NASA's NSSDC Master Catalog

Two Line Element Set (TLE):
1 27595U 88040E   23086.54871542  .00000196  00000-0  27203-2 0  9995
2 27595   7.4973  92.6146 7173508 264.5976  17.5583  2.28925913172659
Source of the keplerian elements: AFSPC